Idaho Falls, ID

11:21 PM MST on February 21, 2017 (GMT -0700)
Fanning

Weather History for KIDA - April, 2014

Change the Weather History Date:

Thursday, April 10, 2014

  Actual Average Record
Temperature  
Mean Temperature 47 °F 43 °F  
Max Temperature 64 °F 56 °F 76 °F (2012)
Min Temperature 30 °F 31 °F 18 °F (1988)
Degree Days  
Heating Degree Days 18 22  
Month to date heating degree days 218 228  
Since 1 July heating degree days 6527 6932  
Cooling Degree Days 0 0  
Month to date cooling degree days 0 0  
Year to date cooling degree days 0 0  
Moisture  
Dew Point 26 °F    
Average Humidity 51    
Maximum Humidity 85    
Minimum Humidity 17    
Precipitation  
Precipitation 0.00 in 0.03 in 0.37 in (1964)
Month to date precipitation 0.08 0.32  
Year to date precipitation 2.37 2.53  
Sea Level Pressure  
Sea Level Pressure 30.01 in    
Wind  
Wind Speed 13 mph (SSW)    
Max Wind Speed 24 mph    
Max Gust Speed 31 mph    
Visibility 10 miles    
Events      
T = Trace of Precipitation, MM = Missing Value Source: NWS Daily Summary

Daily Weather History Graph

Daily Weather History Graph

Search for Another Location

Airport or City:

Trip Planner

Search our weather history database for the weather conditions in past years. The results will help you decide how hot, cold, wet, or windy it might be!

Date:

Astronomy

Apr. 10, 2014 Rise Set
Actual Time 6:54 AM MDT 8:05 PM MDT
Civil Twilight 6:24 AM MDT 8:35 PM MDT
Nautical Twilight 5:49 AM MDT 9:10 PM MDT
Astronomical Twilight 5:12 AM MDT 9:47 PM MDT
Moon 3:45 PM MDT (4/10) 4:26 AM MDT (4/10)
Length of Visible Light 14h 10m
Length of Day
13h 11m
Waxing Gibbous, 80% of the Moon is Illuminated
Apr 10
Waxing Gibbous
Apr 15
Full
Apr 22
Last Quarter
Apr 29
New
May 6
First Quarter

Hourly Weather History & Observations

Time (MDT) Temp. Windchill Dew Point Humidity Pressure Visibility Wind Dir Wind Speed Gust Speed Precip Events Conditions
12:53 AM 42.1 °F - 19.9 °F 41% 29.96 in 10.0 mi Calm Calm - N/A   Clear
1:53 AM 36.0 °F 33.3 °F 21.0 °F 55% 29.98 in 10.0 mi SSW 3.5 mph - N/A   Clear
2:53 AM 34.0 °F - 21.9 °F 61% 29.98 in 10.0 mi Calm Calm - N/A   Clear
3:53 AM 33.1 °F - 23.0 °F 66% 29.99 in 10.0 mi Calm Calm - N/A   Clear
4:53 AM 32.0 °F - 24.1 °F 73% 29.98 in 10.0 mi Calm Calm - N/A   Clear
5:53 AM 39.9 °F 35.8 °F 27.0 °F 60% 29.97 in 10.0 mi South 5.8 mph - N/A   Clear
6:53 AM 41.0 °F 35.8 °F 32.0 °F 70% 29.98 in 10.0 mi South 8.1 mph - N/A   Clear
7:53 AM 39.9 °F 32.5 °F 35.1 °F 83% 30.01 in 10.0 mi SW 12.7 mph - N/A   Mostly Cloudy
8:53 AM 44.1 °F 35.9 °F 36.0 °F 73% 30.02 in 10.0 mi SSW 19.6 mph - N/A   Overcast
9:53 AM 44.1 °F 36.2 °F 36.0 °F 73% 30.04 in 10.0 mi SSW 18.4 mph - N/A   Overcast
10:53 AM 46.0 °F 39.6 °F 35.1 °F 66% 30.08 in 10.0 mi SW 15.0 mph - N/A   Overcast
11:53 AM 51.1 °F - 34.0 °F 52% 30.08 in 10.0 mi SW 15.0 mph - N/A   Mostly Cloudy
12:53 PM 55.9 °F - 30.0 °F 37% 30.05 in 10.0 mi SW 18.4 mph 29.9 mph N/A   Mostly Cloudy
1:53 PM 59.0 °F - 24.1 °F 26% 30.04 in 10.0 mi SW 16.1 mph 29.9 mph N/A   Scattered Clouds
2:53 PM 62.1 °F - 21.0 °F 21% 30.03 in 10.0 mi SSW 18.4 mph 26.5 mph N/A   Clear
3:53 PM 63.0 °F - 21.0 °F 20% 30.01 in 10.0 mi SSW 20.7 mph 28.8 mph N/A   Clear
4:53 PM 63.0 °F - 18.0 °F 18% 30.00 in 10.0 mi SW 17.3 mph 27.6 mph N/A   Clear
5:53 PM 62.1 °F - 19.0 °F 19% 29.98 in 10.0 mi SSW 20.7 mph - N/A   Clear
6:53 PM 60.1 °F - 17.1 °F 19% 29.98 in 10.0 mi SSW 19.6 mph - N/A   Clear
7:53 PM 57.9 °F - 18.0 °F 21% 29.99 in 10.0 mi South 13.8 mph - N/A   Clear
8:53 PM 55.0 °F - 21.9 °F 28% 29.99 in 10.0 mi South 12.7 mph - N/A   Clear
9:53 PM 53.1 °F - 23.0 °F 31% 30.01 in 10.0 mi South 13.8 mph - N/A   Clear
10:53 PM 52.0 °F - 28.0 °F 40% 30.00 in 10.0 mi South 16.1 mph - N/A   Clear
11:53 PM 51.1 °F - 28.9 °F 43% 29.98 in 10.0 mi South 16.1 mph - N/A   Clear